CCM81Z LFLL-LFKC

Flight info

Callsign CCM81Z
Flight time 0h 44m
Altitude 31000
Route ROMAM T43 BEPER DCT RETNO DCT KOLON DCT NARTI UP991 NIRDO
Aircraft A320/M-SDE3FGHIRWY/LB1

Departure

Time 2026-04-20 22:01
Airport Lyon Saint-Exupéry Airport (LFLL)

Arrival

Time 2026-04-20 22:45
Airport Calvi Sainte Catherine Airport (LFKC)
Time Latitude Longitude Altitude Speed Heading
2026-04-20 21:35 45.71593 5.08270 799 ft 0 kts 169°
2026-04-20 21:51 45.71607 5.08267 798 ft 4 kts 188°
2026-04-20 21:52 45.71631 5.08280 798 ft 4 kts 197°
2026-04-20 21:52 45.71652 5.08289 798 ft 4 kts 210°
2026-04-20 21:52 45.71667 5.08307 798 ft 4 kts 239°
2026-04-20 21:52 45.71676 5.08340 798 ft 4 kts 263°
2026-04-20 21:53 45.71677 5.08357 798 ft 0 kts 265°
2026-04-20 21:55 45.71677 5.08342 798 ft 5 kts 265°
2026-04-20 21:56 45.71674 5.08275 797 ft 7 kts 270°
2026-04-20 21:56 45.71681 5.08215 797 ft 6 kts 284°
2026-04-20 21:56 45.71695 5.08121 797 ft 12 kts 267°
2026-04-20 21:56 45.71634 5.08053 798 ft 13 kts 195°
2026-04-20 21:57 45.71554 5.08021 799 ft 11 kts 195°
2026-04-20 21:57 45.71482 5.08003 799 ft 13 kts 169°
2026-04-20 21:57 45.71435 5.08149 800 ft 19 kts 106°
2026-04-20 21:57 45.71408 5.08337 801 ft 20 kts 87°
2026-04-20 21:58 45.71397 5.08509 801 ft 15 kts 132°
2026-04-20 21:58 45.71307 5.08538 802 ft 12 kts 176°
2026-04-20 21:58 45.71255 5.08542 803 ft 11 kts 176°
2026-04-20 21:58 45.71172 5.08559 804 ft 8 kts 159°
2026-04-20 21:59 45.71142 5.08588 804 ft 10 kts 137°
2026-04-20 21:59 45.71106 5.08719 805 ft 18 kts 105°
2026-04-20 21:59 45.71074 5.08898 805 ft 18 kts 90°
2026-04-20 21:59 45.71206 5.09015 802 ft 21 kts 352°
2026-04-20 22:00 45.71440 5.08985 800 ft 64 kts 355°
2026-04-20 22:00 45.72123 5.08903 796 ft 130 kts 355°
2026-04-20 22:00 45.73196 5.08772 881 ft 171 kts 355°
2026-04-20 22:00 45.74004 5.08684 1245 ft 179 kts 355°
2026-04-20 22:01 45.75238 5.08539 2063 ft 178 kts 354°
2026-04-20 22:01 45.76523 5.08378 2519 ft 196 kts 354°
2026-04-20 22:01 45.77956 5.08197 2899 ft 217 kts 355°
2026-04-20 22:01 45.79530 5.08001 3464 ft 233 kts 355°
2026-04-20 22:02 45.81699 5.07757 4623 ft 240 kts
2026-04-20 22:02 45.83293 5.08426 5438 ft 246 kts 36°
2026-04-20 22:02 45.84065 5.09619 5975 ft 250 kts 61°
2026-04-20 22:02 45.84428 5.12041 6784 ft 256 kts 98°
2026-04-20 22:03 45.83706 5.14347 7614 ft 260 kts 134°
2026-04-20 22:03 45.82189 5.15742 8459 ft 263 kts 159°
2026-04-20 22:03 45.80433 5.16509 9330 ft 266 kts 166°
2026-04-20 22:03 45.78623 5.17129 10168 ft 269 kts 167°
2026-04-20 22:04 45.76794 5.17809 10963 ft 274 kts 165°
2026-04-20 22:04 45.74956 5.18607 11739 ft 278 kts 163°
2026-04-20 22:04 45.73111 5.19512 12498 ft 282 kts 164°
2026-04-20 22:04 45.71218 5.20109 13192 ft 286 kts 177°
2026-04-20 22:05 45.69162 5.20136 13476 ft 306 kts 186°
2026-04-20 22:05 45.66953 5.19973 13685 ft 330 kts 186°
2026-04-20 22:05 45.64582 5.19802 13852 ft 353 kts 186°
2026-04-20 22:05 45.62122 5.19633 13981 ft 374 kts 185°
2026-04-20 22:06 45.59447 5.19457 14108 ft 395 kts 185°
2026-04-20 22:06 45.56645 5.19279 14332 ft 410 kts 185°
2026-04-20 22:06 45.53770 5.19101 14851 ft 416 kts 185°
2026-04-20 22:06 45.50861 5.18921 15421 ft 421 kts 185°
2026-04-20 22:07 45.47962 5.18740 15961 ft 425 kts 186°
2026-04-20 22:07 45.44999 5.18554 16494 ft 428 kts 186°
2026-04-20 22:07 45.42018 5.18365 17001 ft 431 kts 186°
2026-04-20 22:07 45.39004 5.18172 17480 ft 434 kts 186°
2026-04-20 22:08 45.35974 5.17976 17951 ft 438 kts 186°
2026-04-20 22:08 45.32919 5.17779 18413 ft 441 kts 186°
2026-04-20 22:08 45.29845 5.17581 18859 ft 444 kts 187°
2026-04-20 22:08 45.26750 5.17384 19278 ft 447 kts 187°
2026-04-20 22:09 45.23633 5.17188 19688 ft 450 kts 187°
2026-04-20 22:09 45.20541 5.16991 20078 ft 452 kts 187°
2026-04-20 22:09 45.17389 5.16790 20461 ft 455 kts 187°
2026-04-20 22:09 45.14217 5.16587 20819 ft 458 kts 187°
2026-04-20 22:10 45.11023 5.16393 21145 ft 461 kts 185°
2026-04-20 22:10 45.07793 5.16605 21470 ft 467 kts 179°
2026-04-20 22:10 45.04545 5.16979 21800 ft 469 kts 179°
2026-04-20 22:10 45.01277 5.17347 22124 ft 472 kts 180°
2026-04-20 22:11 44.97999 5.17708 22433 ft 474 kts 180°
2026-04-20 22:11 44.94699 5.18068 22731 ft 477 kts 180°
2026-04-20 22:11 44.91384 5.18432 23026 ft 479 kts 180°
2026-04-20 22:11 44.88100 5.18798 23296 ft 481 kts 180°
2026-04-20 22:12 44.84754 5.19173 23556 ft 483 kts 180°
2026-04-20 22:12 44.81394 5.19551 23823 ft 485 kts 180°
2026-04-20 22:12 44.78023 5.19927 24079 ft 487 kts 180°
2026-04-20 22:12 44.74641 5.20302 24324 ft 488 kts 180°
2026-04-20 22:13 44.71246 5.20728 24527 ft 492 kts 176°
2026-04-20 22:13 44.67882 5.21754 24746 ft 498 kts 167°
2026-04-20 22:13 44.64643 5.23551 24932 ft 505 kts 156°
2026-04-20 22:13 44.61616 5.26104 25105 ft 511 kts 146°
2026-04-20 22:14 44.58944 5.29313 25251 ft 515 kts 136°
2026-04-20 22:14 44.56546 5.33071 25405 ft 517 kts 133°
2026-04-20 22:14 44.54178 5.36857 25619 ft 516 kts 133°
2026-04-20 22:14 44.51802 5.40625 25844 ft 516 kts 133°
2026-04-20 22:15 44.49419 5.44386 26034 ft 516 kts 133°
2026-04-20 22:15 44.47039 5.48136 26256 ft 515 kts 133°
2026-04-20 22:15 44.44658 5.51883 26489 ft 514 kts 133°
2026-04-20 22:15 44.42281 5.55620 26716 ft 514 kts 133°
2026-04-20 22:16 44.39910 5.59350 26938 ft 513 kts 133°
2026-04-20 22:16 44.37651 5.63127 27152 ft 514 kts 128°
2026-04-20 22:16 44.35630 5.67243 27390 ft 514 kts 125°
2026-04-20 22:16 44.33627 5.71383 27617 ft 514 kts 125°
2026-04-20 22:17 44.31622 5.75513 27837 ft 513 kts 126°
2026-04-20 22:17 44.29618 5.79630 28073 ft 513 kts 126°
2026-04-20 22:17 44.27612 5.83745 28301 ft 513 kts 126°
2026-04-20 22:17 44.25608 5.87856 28521 ft 512 kts 126°
2026-04-20 22:18 44.23604 5.91966 28759 ft 512 kts 126°
2026-04-20 22:18 44.21627 5.96018 28988 ft 511 kts 126°
2026-04-20 22:18 44.19623 6.00118 29217 ft 511 kts 126°
2026-04-20 22:18 44.17621 6.04204 29449 ft 511 kts 126°
2026-04-20 22:19 44.15613 6.08291 29683 ft 511 kts 126°
2026-04-20 22:19 44.13608 6.12362 29886 ft 510 kts 126°
2026-04-20 22:19 44.11599 6.16436 30110 ft 510 kts 126°
2026-04-20 22:19 44.09619 6.20444 30334 ft 510 kts 126°
2026-04-20 22:20 44.07608 6.24509 30565 ft 509 kts 126°
2026-04-20 22:20 44.05602 6.28566 30780 ft 509 kts 126°
2026-04-20 22:20 44.03596 6.32624 30919 ft 510 kts 126°
2026-04-20 22:21 43.99569 6.40750 30946 ft 511 kts 126°
2026-04-20 22:21 43.95537 6.48860 30946 ft 511 kts 126°
2026-04-20 22:22 43.91489 6.56970 30945 ft 510 kts 127°
2026-04-20 22:22 43.87475 6.64981 30941 ft 509 kts 126°
2026-04-20 22:23 43.83428 6.73050 30947 ft 510 kts 127°
2026-04-20 22:23 43.79370 6.81115 30948 ft 511 kts 127°
2026-04-20 22:24 43.75303 6.89176 30948 ft 511 kts 127°
2026-04-20 22:24 43.71140 6.97042 30942 ft 509 kts 133°
2026-04-20 22:25 43.66516 7.04462 30933 ft 509 kts 133°
2026-04-20 22:25 43.61885 7.11863 30939 ft 510 kts 133°
2026-04-20 22:26 43.57251 7.19262 30942 ft 510 kts 132°
2026-04-20 22:26 43.53433 7.27514 30948 ft 513 kts 115°
2026-04-20 22:27 43.49055 7.40914 30948 ft 514 kts 115°
2026-04-20 22:27 43.46082 7.49866 30950 ft 514 kts 115°
2026-04-20 22:28 43.43100 7.58821 30763 ft 515 kts 115°
2026-04-20 22:28 43.41616 7.63284 29822 ft 514 kts 115°
2026-04-20 22:28 43.40143 7.67719 28466 ft 519 kts 115°
2026-04-20 22:29 43.38640 7.72243 27081 ft 521 kts 115°
2026-04-20 22:29 43.37135 7.76756 25702 ft 518 kts 115°
2026-04-20 22:29 43.35631 7.81247 24313 ft 515 kts 115°
2026-04-20 22:29 43.34139 7.85691 22966 ft 512 kts 115°
2026-04-20 22:30 43.32647 7.90142 21778 ft 509 kts 115°
2026-04-20 22:30 43.31188 7.94494 20746 ft 497 kts 115°
2026-04-20 22:30 43.29755 7.98754 19774 ft 486 kts 115°
2026-04-20 22:30 43.28340 8.02952 18848 ft 483 kts 115°
2026-04-20 22:31 43.26954 8.07058 17941 ft 480 kts 115°
2026-04-20 22:31 43.25556 8.11186 17200 ft 472 kts 115°
2026-04-20 22:31 43.24178 8.15250 16316 ft 466 kts 115°
2026-04-20 22:31 43.22823 8.19240 15420 ft 458 kts 115°
2026-04-20 22:32 43.21495 8.23158 14627 ft 449 kts 115°
2026-04-20 22:32 43.20188 8.27000 13822 ft 440 kts 116°
2026-04-20 22:32 43.18910 8.30753 13110 ft 429 kts 116°
2026-04-20 22:32 43.17658 8.34418 12400 ft 420 kts 116°
2026-04-20 22:33 43.16435 8.37995 11705 ft 410 kts 116°
2026-04-20 22:33 43.15256 8.41439 11250 ft 396 kts 116°
2026-04-20 22:33 43.13944 8.44608 11130 ft 371 kts 126°
2026-04-20 22:33 43.12463 8.47382 10993 ft 351 kts 128°
2026-04-20 22:34 43.11050 8.50000 10868 ft 334 kts 128°
2026-04-20 22:34 43.09707 8.52495 10726 ft 319 kts 128°
2026-04-20 22:34 43.08414 8.54899 10451 ft 310 kts 128°
2026-04-20 22:34 43.07167 8.57215 10044 ft 307 kts 129°
2026-04-20 22:35 43.05884 8.59593 9588 ft 305 kts 129°
2026-04-20 22:35 43.04642 8.61891 9198 ft 304 kts 129°
2026-04-20 22:35 43.03390 8.64209 8798 ft 302 kts 129°
2026-04-20 22:35 43.02145 8.66516 8426 ft 300 kts 129°
2026-04-20 22:36 43.00909 8.68803 8039 ft 298 kts 129°
2026-04-20 22:36 42.99681 8.71069 7666 ft 296 kts 129°
2026-04-20 22:36 42.98461 8.73317 7296 ft 293 kts 129°
2026-04-20 22:36 42.97252 8.75536 6939 ft 290 kts 130°
2026-04-20 22:37 42.95828 8.77426 6550 ft 283 kts 147°
2026-04-20 22:37 42.94131 8.78635 6170 ft 276 kts 164°
2026-04-20 22:37 42.92273 8.79151 5768 ft 271 kts 179°
2026-04-20 22:37 42.90401 8.79178 5346 ft 269 kts 182°
2026-04-20 22:38 42.88536 8.79191 4924 ft 267 kts 182°
2026-04-20 22:38 42.86684 8.79197 4517 ft 265 kts 181°
2026-04-20 22:38 42.84838 8.79197 4091 ft 264 kts 181°
2026-04-20 22:38 42.83010 8.79196 3667 ft 262 kts 181°
2026-04-20 22:39 42.81194 8.79199 3281 ft 259 kts 181°
2026-04-20 22:39 42.79467 8.79200 3163 ft 245 kts 180°
2026-04-20 22:39 42.77802 8.79201 3053 ft 233 kts 180°
2026-04-20 22:39 42.76238 8.79203 3037 ft 217 kts 180°
2026-04-20 22:40 42.74781 8.79207 3035 ft 203 kts 181°
2026-04-20 22:40 42.73397 8.79213 3037 ft 196 kts 180°
2026-04-20 22:40 42.72037 8.79216 3037 ft 194 kts 180°
2026-04-20 22:40 42.70690 8.79220 3046 ft 191 kts 180°
2026-04-20 22:41 42.69431 8.79228 3059 ft 173 kts 180°
2026-04-20 22:41 42.68303 8.79235 2973 ft 157 kts 181°
2026-04-20 22:41 42.67233 8.79238 2737 ft 148 kts 181°
2026-04-20 22:41 42.66233 8.79242 2535 ft 141 kts 181°
2026-04-20 22:42 42.65266 8.79249 2338 ft 138 kts 181°
2026-04-20 22:42 42.64315 8.79254 2147 ft 136 kts 181°
2026-04-20 22:42 42.63372 8.79258 1962 ft 135 kts 181°
2026-04-20 22:42 42.62436 8.79263 1779 ft 134 kts 182°
2026-04-20 22:43 42.61509 8.79267 1596 ft 133 kts 182°
2026-04-20 22:43 42.60598 8.79273 1420 ft 132 kts 182°
2026-04-20 22:43 42.59685 8.79275 1242 ft 131 kts 183°
2026-04-20 22:43 42.58777 8.79279 1063 ft 130 kts 182°
2026-04-20 22:44 42.57871 8.79293 889 ft 130 kts 182°
2026-04-20 22:44 42.56970 8.79316 715 ft 130 kts 181°
2026-04-20 22:44 42.56065 8.79323 546 ft 130 kts 184°
2026-04-20 22:44 42.55163 8.79291 359 ft 130 kts 183°
2026-04-20 22:45 42.54257 8.79299 170 ft 130 kts 182°
2026-04-20 22:45 42.53401 8.79291 124 ft 106 kts 179°
2026-04-20 22:45 42.52844 8.79296 164 ft 60 kts 179°
2026-04-20 22:45 42.52550 8.79299 187 ft 26 kts 180°
2026-04-20 22:46 42.52435 8.79264 200 ft 8 kts 259°
2026-04-20 22:46 42.52437 8.79198 193 ft 6 kts 269°
2026-04-20 22:46 42.52437 8.79166 193 ft 0 kts 270°
2026-04-20 22:46 42.52437 8.79157 199 ft 3 kts 271°
2026-04-20 22:47 42.52444 8.79134 192 ft 3 kts 298°
2026-04-20 22:47 42.52464 8.79092 202 ft 6 kts 301°
2026-04-20 22:47 42.52471 8.79077 192 ft 0 kts 300°